Terug naar catalogus

THOR ABLESTAR DEB

ActiefLEO
NORAD 17713·DEBRIS·🇺🇸 United States

Gelanceerd Jun 29, 1961 vanaf Cape Canaveral Space Force Station

Loading…

Volgende Passages (komende 24 uur)

TLE

VersSource: Space-Track

Epoch: Sep 14, 2026, 12:13 UTC

1 17713U 61015LR  26257.50970065  .00000180  00000-0  18007-3 0  9994
2 17713  66.2098  73.0555 0058721 106.1739 286.1266 13.98739588112823

Volg THOR ABLESTAR DEB in realtime met AllMySat

Download on the App Store